Location: ??????????
(54.8537°N, 38.8755°E)
Time: 02:44:31
(UTC+00:00)

Vanguard 2 Rocket - Pass Details

Date: 19 September 2024
Orbit: 553 x 3298 km, 32.9° (Epoch: 10 October)

Event Time Altitude Azimuth Distance (km) Brightness Sun altitude
Rises 02:59:35 0° 260° (W) 5,619 - -1.6°
Exits shadow 03:00:09 - 258° (WSW) 5,538 10.2 -1.5°
Reaches altitude 10° 03:04:17 10° 245° (WSW) 5,049 10.1 -0.9°
Maximum altitude 03:14:14 21° 205° (SSW) 4,885 10.4 0.5°
Drops below altitude 10° 03:26:17 10° 166° (SSE) 6,201 11.4 2.2°
Sets 03:33:11 0° 153° (SSE) 7,266 11.9 3.2°
